Location: Erlenbrunn
(49.1717°N, 7.6142°E)
Time: 10:09:07
(UTC+00:00)

Meteor 1-14 Rocket - Pass Details

Date: 25 November 2020
Orbit: 834 x 919 km, 81.3° (Epoch: 25 January)

Event Time Altitude Azimuth Distance (km) Brightness Sun altitude
Rises 18:18:06 0° 346° (NNW) 3,530 7.6 -25.6°
Reaches altitude 10° 18:20:34 10° 345° (NNW) 2,595 6.9 -26.0°
Maximum altitude 18:26:29 73° 262° (W) 957 4.5 -27.0°
Drops below altitude 10° 18:32:25 10° 179° (S) 2,607 6.7 -27.9°
Sets 18:34:53 0° 177° (S) 3,546 7.4 -28.3°
